Find Starlink 37214

NORAD ID: 68345 Int'l Des: 2026-059 Owner: SPXS Country: US Constellation: starlink operational
LEOCIRCULAR

Live-Position

3D-Globus wird geladen...

Über Starlink 37214

Beschreibung wird geladen...

Nächste Überflüge

Passes for default location (London). Set your location on the main map for personalized predictions.

Höhenverlauf

Loading altitude history...

Zweizeiliger Elementsatz

1 68345U 26059AA 26127.20587359 .00048615 00000-0 87540-3 0 9996
2 68345 53.1598 74.4030 0001000 100.4724 259.6397 15.49351858 7160
Epoch: 7. Mai 2026 • Age: 11 hours

Aktueller Status

Höhe 423.3 km
Geschwindigkeit 7.66 km/s
Subsatellitenpunkt 48.05°N, 21.6°E
Startdatum 22. März 2026
Alter 0.1 years
Typ internet

Technische Details

Klassifizierung Payload
Masse 575.00 kg
Trockenmasse 530.00 kg
Gesamtmasse 575.00 kg
Länge 0.30 m
Durchmesser 4.10 m
Spannweite 29.00 m
Form Box + pan
Hersteller SPXS
Bus-Typ Starlink V2MO
Phasenstatus In Orbit
Besitzer/Staat SPXS/US

Most Searched